Friday Harbor, WA
on Saturday, December 15, 2012

Saturday
Previous Day Next Day
Daily Summary
 ActualAverageRecord
Temperature
Mean Temperature °F °F  
Max Temperature 42°F 43°F 53°F (1997)
Min Temperature 39°F 35°F 21°F (2008)
Degree Days
Heating Degree Days 24    
Moisture
Dew Point 35°F   
Average Humidity 84    
Maximum Humidity 93    
Minimum Humidity 70    
Precipitation
Precipitation 0.09 in in in ()
Wind
Wind Speed 15 mph   
Max Wind Speed 30 mph   
Max Gust Speed 47 mph   
Visibility 10 miles   
Events Rain   
Averages and records for this station are not official NWS values.
Key: T is trace of precipitation, MM is missing value
Source: NWS Daily Summary
Seasonal Weather Averages
Time(PST)TemperatureDew PointHumidity Pressure Visibility Wind DirectionWind SpeedGust SpeedPrecipitationEvents Conditions
12:53 AM 39.0°F 34.0°F 82% 29.87 in 10.0 miles East 12.7 mph - N/A   Mostly Cloudy
1:00 AM 39.2°F 35.6°F 87% 29.87 in 10.0 miles East 10.4 mph - N/A   Mostly Cloudy
1:53 AM 39.0°F 35.1°F 86% 29.86 in 10.0 miles East 10.4 mph - N/A   Overcast
2:53 AM 39.0°F 35.1°F 86% 29.84 in 10.0 miles East 10.4 mph 19.6 mph N/A   Overcast
3:31 AM 39.2°F 35.6°F 87% 29.81 in 10.0 miles East 12.7 mph 21.9 mph N/A   Overcast
3:53 AM 39.0°F 35.1°F 86% 29.80 in 10.0 miles East 12.7 mph 21.9 mph N/A   Overcast
4:37 AM 39.2°F 33.8°F 81% 29.78 in 10.0 miles East 13.8 mph 19.6 mph N/A   Overcast
4:53 AM 39.0°F 34.0°F 82% 29.79 in 10.0 miles East 13.8 mph 19.6 mph N/A   Overcast
6:21 AM 39.2°F 35.6°F 87% 29.73 in 10.0 miles ESE 19.6 mph 28.8 mph 0.00 in Rain Light Rain
6:53 AM 39.0°F 34.0°F 82% 29.72 in 10.0 miles ESE 17.3 mph 26.5 mph 0.00 in   Overcast
7:06 AM 39.2°F 33.8°F 81% 29.71 in 10.0 miles East 20.7 mph 27.6 mph N/A   Overcast
7:43 AM 39.2°F 32.0°F 75% 29.67 in 10.0 miles East 18.4 mph 26.5 mph N/A   Overcast
7:53 AM 39.9°F 33.1°F 77% 29.67 in 10.0 miles East 19.6 mph 28.8 mph N/A   Overcast
8:28 AM 41.0°F 32.0°F 70% 29.64 in 10.0 miles ESE 24.2 mph 34.5 mph N/A   Overcast
8:53 AM 42.1°F 33.1°F 70% 29.63 in 10.0 miles ESE 26.5 mph 38.0 mph N/A   Overcast
9:53 AM 41.0°F 34.0°F 76% 29.60 in 10.0 miles SE 29.9 mph 47.2 mph N/A   Overcast
10:53 AM 41.0°F 35.1°F 79% 29.57 in 10.0 miles ESE 26.5 mph 40.3 mph N/A   Overcast
11:53 AM 39.9°F 35.1°F 83% 29.54 in 10.0 miles SE 25.3 mph 39.1 mph N/A   Overcast
12:53 PM 39.9°F 35.1°F 83% 29.49 in 10.0 miles SE 26.5 mph 39.1 mph N/A   Overcast
1:53 PM 41.0°F 35.1°F 79% 29.50 in 10.0 miles SE 20.7 mph 36.8 mph N/A   Overcast
2:53 PM 39.9°F 36.0°F 86% 29.50 in 10.0 miles SE 18.4 mph 27.6 mph 0.00 in Rain Light Rain
3:16 PM 41.0°F 37.4°F 87% 29.49 in 10.0 miles SE 16.1 mph 27.6 mph 0.00 in   Overcast
3:45 PM 41.0°F 37.4°F 87% 29.50 in 10.0 miles SSE 17.3 mph 27.6 mph 0.00 in   Overcast
3:53 PM 41.0°F 37.0°F 86% 29.50 in 10.0 miles SSE 17.3 mph 25.3 mph 0.00 in   Mostly Cloudy
4:39 PM 39.2°F 35.6°F 87% 29.51 in 10.0 miles SSE 18.4 mph 25.3 mph N/A   Overcast
4:53 PM 39.9°F 37.0°F 89% 29.52 in 7.0 miles SE 18.4 mph 28.8 mph 0.00 in Rain Light Rain
5:26 PM 39.2°F 37.4°F 93% 29.51 in 9.0 miles SSE 12.7 mph 21.9 mph 0.00 in Rain Light Rain
5:53 PM 39.9°F 37.0°F 89% 29.52 in 9.0 miles SSE 18.4 mph 25.3 mph 0.00 in Rain Light Rain
6:53 PM 39.0°F 37.0°F 93% 29.54 in 5.0 miles SSE 10.4 mph - 0.06 in Rain Rain
7:38 PM 39.2°F 37.4°F 93% 29.54 in 8.0 miles Variable 5.8 mph - 0.03 in Rain Light Rain
7:53 PM 39.9°F 37.0°F 89% 29.55 in 10.0 miles Calm Calm - 0.03 in   Overcast
8:53 PM 41.0°F 37.0°F 86% 29.56 in 10.0 miles SW 10.4 mph 20.7 mph N/A   Overcast
9:20 PM 41.0°F 37.4°F 87% 29.56 in 10.0 miles SW 10.4 mph 19.6 mph N/A   Mostly Cloudy
9:53 PM 41.0°F 36.0°F 82% 29.57 in 10.0 miles SW 10.4 mph 19.6 mph N/A   Clear
10:53 PM 39.9°F 35.1°F 83% 29.60 in 10.0 miles SW 10.4 mph - N/A   Clear
11:53 PM 39.9°F 34.0°F 79% 29.64 in 10.0 miles SW 9.2 mph - N/A   Partly Cloudy
Moon Phase
Dec. 15 Dec. 20 Dec. 28 Jan. 04 Jan. 11
Sunrise:07:57 AM (PST) Moon Rise:09:45 AM (PST)12/15
Sunset:04:17 PM (PST) Moon Set:07:39 PM (PST)12/15

Copyright © 2014 The Weather Underground, Inc.